Location: Raitis
(47.2167°N, 11.3833°E)
Time: 09:04:24
(UTC+00:00)

SME Rocket - Pass Details

Date: 03 March 2021
Orbit: 550 x 2652 km, 99.9° (Epoch: 14 April)

Event Time Altitude Azimuth Distance (km) Brightness Sun altitude
Rises 19:06:11 0° 15° (NNE) 5,058 7.7 -21.6°
Reaches altitude 10° 19:09:44 10° 16° (NNE) 3,747 7.0 -22.2°
Maximum altitude 19:18:09 85° 106° (ESE) 1,096 4.1 -23.6°
Drops below altitude 10° 19:23:31 10° 195° (SSW) 2,433 6.1 -24.4°
Sets 19:25:25 0° 196° (SSW) 3,197 6.7 -24.7°
